Vernon, TX

1:26 PM CDT on April 22, 2018 (GMT -0500)
Vernon

Weather History for KF05 - June, 2014

Change the Weather History Date:

Wednesday, June 4, 2014

  Actual Average (KLTS) Record (KLTS)
Temperature  
Mean Temperature 88 °F -  
Max Temperature 106 °F 86 °F 101 °F (2014)
Min Temperature 71 °F 64 °F 61 °F (2007)
Cooling Degree Days 24    
Growing Degree Days 38 (Base 50)    
Moisture  
Dew Point 61 °F    
Average Humidity 43    
Maximum Humidity 77    
Minimum Humidity 16    
Precipitation  
Precipitation 0.00 in - - ()
Sea Level Pressure  
Sea Level Pressure 29.76 in    
Wind  
Wind Speed 14 mph (South)    
Max Wind Speed 21 mph    
Max Gust Speed 28 mph    
Visibility 10 miles    
Events      
Averages and records for this station are not official NWS values.
T = Trace of Precipitation, MM = Missing Value Source: NWS Daily Summary

Daily Weather History Graph

Daily Weather History Graph

Search for Another Location

Airport or City:

Astronomy

Jun. 04, 2014 Rise Set
Actual Time 6:25 AM CDT 8:45 PM CDT
Civil Twilight 5:56 AM CDT 9:14 PM CDT
Nautical Twilight 5:21 AM CDT 9:50 PM CDT
Astronomical Twilight 4:42 AM CDT 10:29 PM CDT
Moon 12:34 PM CDT (6/4) 12:56 AM CDT (6/4)
Length of Visible Light 15h 18m
Length of Day
14h 20m
Waxing Crescent, 39% of the Moon is Illuminated
Jun 4
Waxing Crescent
Jun 5
First Quarter
Jun 12
Full
Jun 19
Last Quarter
Jun 27
New

Hourly Weather History & Observations

Time (CDT) Temp. Heat Index Dew Point Humidity Pressure Visibility Wind Dir Wind Speed Gust Speed Precip Events Conditions
12:15 AM 82.9 °F 83.8 °F 62.8 °F 50% 29.83 in 10.0 mi South 15.0 mph - N/A   Clear
12:35 AM 82.8 °F 83.8 °F 62.8 °F 51% 29.82 in 10.0 mi South 16.1 mph 23.0 mph N/A   Clear
12:55 AM 82.4 °F 83.4 °F 62.8 °F 51% 29.83 in 10.0 mi South 13.8 mph 17.3 mph N/A   Clear
1:15 AM 82.0 °F 83.1 °F 62.8 °F 52% 29.83 in 10.0 mi South 11.5 mph - N/A   Clear
1:35 AM 81.5 °F 82.7 °F 62.8 °F 53% 29.83 in 10.0 mi South 10.4 mph - N/A   Clear
1:55 AM 81.3 °F 82.6 °F 63.0 °F 54% 29.82 in 10.0 mi South 12.7 mph - N/A   Clear
2:15 AM 81.1 °F 82.4 °F 63.1 °F 54% 29.82 in 10.0 mi South 12.7 mph 17.3 mph N/A   Clear
2:35 AM 80.2 °F 81.8 °F 63.5 °F 57% 29.81 in 10.0 mi South 11.5 mph - N/A   Clear
2:55 AM 79.0 °F - 63.7 °F 59% 29.79 in 10.0 mi South 12.7 mph - N/A   Clear
3:15 AM 79.2 °F - 63.9 °F 59% 29.80 in 10.0 mi South 11.5 mph - N/A   Clear
3:35 AM 79.0 °F - 63.9 °F 60% 29.78 in 10.0 mi South 15.0 mph - N/A   Clear
3:55 AM 78.6 °F - 64.0 °F 61% 29.77 in 10.0 mi South 15.0 mph - N/A   Clear
4:15 AM 78.1 °F - 64.0 °F 62% 29.81 in 10.0 mi South 4.6 mph - N/A   Clear
4:35 AM 77.0 °F - 64.0 °F 64% 29.80 in 10.0 mi South 8.1 mph - N/A   Clear
4:55 AM 75.9 °F - 64.0 °F 67% 29.79 in 10.0 mi South 9.2 mph - N/A   Clear
5:15 AM 74.7 °F - 64.2 °F 70% 29.79 in 10.0 mi South 6.9 mph - N/A   Clear
5:35 AM - - - N/A% - - North - - N/A   Unknown
5:55 AM 72.5 °F - 64.2 °F 75% 29.79 in 10.0 mi South 6.9 mph - N/A   Clear
6:15 AM 71.8 °F - 64.2 °F 77% 29.79 in 10.0 mi South 8.1 mph - N/A   Clear
6:35 AM 72.1 °F - 64.4 °F 77% 29.80 in 10.0 mi South 6.9 mph - N/A   Clear
6:55 AM 72.7 °F - 64.4 °F 75% 29.81 in 10.0 mi South 5.8 mph - N/A   Clear
7:15 AM 73.8 °F - 64.6 °F 73% 29.81 in 10.0 mi South 8.1 mph - N/A   Clear
7:35 AM 74.8 °F - 64.8 °F 71% 29.81 in 10.0 mi SSE 8.1 mph - N/A   Clear
7:55 AM 75.9 °F - 64.8 °F 68% 29.81 in 10.0 mi South 9.2 mph - N/A   Clear
8:15 AM 77.2 °F - 64.6 °F 65% 29.82 in 10.0 mi South 13.8 mph - N/A   Clear
8:35 AM 78.8 °F - 64.9 °F 62% 29.82 in 10.0 mi South 11.5 mph - N/A   Clear
8:55 AM 80.1 °F 81.8 °F 64.8 °F 59% 29.83 in 10.0 mi South 15.0 mph - N/A   Clear
9:15 AM - - - N/A% 29.84 in 10.0 mi South 16.1 mph 20.7 mph N/A   Unknown
9:35 AM 82.9 °F 84.6 °F 64.9 °F 54% 29.83 in 10.0 mi South 13.8 mph 19.6 mph N/A   Clear
9:55 AM 84.2 °F 85.8 °F 64.9 °F 52% 29.84 in 10.0 mi South 17.3 mph 23.0 mph N/A   Clear
10:15 AM 85.1 °F 86.6 °F 64.6 °F 50% 29.83 in 10.0 mi SSW 17.3 mph - N/A   Clear
10:35 AM 86.0 °F 87.6 °F 64.6 °F 49% 29.82 in 10.0 mi SSW 16.1 mph - N/A   Clear
10:55 AM 87.4 °F 88.8 °F 64.6 °F 46% 29.81 in 10.0 mi South 16.1 mph - N/A   Clear
11:15 AM 88.3 °F 89.9 °F 64.6 °F 45% 29.81 in 10.0 mi South 16.1 mph 20.7 mph N/A   Clear
11:35 AM 89.4 °F 91.2 °F 64.6 °F 44% 29.81 in 10.0 mi South 15.0 mph 23.0 mph N/A   Clear
11:55 AM 90.3 °F 92.2 °F 65.1 °F 43% 29.80 in 10.0 mi South 17.3 mph 24.2 mph N/A   Clear
12:15 PM 91.4 °F 93.2 °F 64.4 °F 41% 29.80 in 10.0 mi South 19.6 mph 23.0 mph N/A   Clear
12:35 PM 93.0 °F 94.6 °F 63.9 °F 38% 29.80 in 10.0 mi SSW 18.4 mph 21.9 mph N/A   Clear
12:55 PM 94.5 °F 95.6 °F 63.1 °F 35% 29.79 in 10.0 mi South 13.8 mph 20.7 mph N/A   Clear
1:15 PM 95.9 °F 97.0 °F 62.4 °F 33% 29.78 in 10.0 mi South 17.3 mph 21.9 mph N/A   Clear
1:35 PM 97.2 °F 98.1 °F 61.7 °F 31% 29.77 in 10.0 mi SSW 12.7 mph 24.2 mph N/A   Clear
1:55 PM 98.2 °F 99.4 °F 61.5 °F 30% 29.76 in 10.0 mi South 18.4 mph 24.2 mph N/A   Clear
2:15 PM 99.3 °F 100.1 °F 61.2 °F 28% 29.76 in 10.0 mi SSW 17.3 mph 23.0 mph N/A   Clear
2:35 PM 100.8 °F 101.3 °F 59.7 °F 26% 29.75 in 10.0 mi SSW 18.4 mph 26.5 mph N/A   Clear
2:55 PM 102.0 °F 101.6 °F 58.1 °F 23% 29.74 in 10.0 mi SSW 19.6 mph 24.2 mph N/A   Clear
3:15 PM 102.7 °F 102.7 °F 57.9 °F 23% 29.73 in 10.0 mi SSW 18.4 mph 23.0 mph N/A   Clear
3:35 PM 103.6 °F 102.9 °F 56.1 °F 21% 29.72 in 10.0 mi SW 17.3 mph 25.3 mph N/A   Clear
4:15 PM 104.9 °F 103.6 °F 55.4 °F 19% 29.70 in 10.0 mi SSW 19.6 mph 27.6 mph N/A   Clear
4:35 PM 105.1 °F 103.3 °F 54.0 °F 18% 29.70 in 10.0 mi SSW 19.6 mph 25.3 mph N/A   Clear
4:55 PM 105.8 °F 104.3 °F 53.8 °F 18% 29.69 in 10.0 mi SSW 20.7 mph - N/A   Clear
5:15 PM 106.0 °F 103.9 °F 53.2 °F 17% 29.68 in 10.0 mi SSW 18.4 mph 24.2 mph N/A   Clear
5:35 PM 105.8 °F - 52.5 °F 17% 29.68 in 10.0 mi South 16.1 mph - N/A   Clear
5:55 PM 105.6 °F - 52.3 °F 17% 29.68 in 10.0 mi South 18.4 mph 25.3 mph N/A   Clear
6:15 PM 105.6 °F - 51.4 °F 16% 29.67 in 10.0 mi SSW 19.6 mph - N/A   Clear
6:35 PM 105.3 °F - 50.9 °F 16% 29.67 in 10.0 mi SSW 18.4 mph - N/A   Clear
6:55 PM 104.4 °F - 49.5 °F 16% 29.67 in 10.0 mi South 18.4 mph 24.2 mph N/A   Clear
7:15 PM 103.5 °F - 49.6 °F 16% 29.67 in 10.0 mi South 16.1 mph 20.7 mph N/A   Clear
7:35 PM 102.9 °F - 50.2 °F 17% 29.67 in 10.0 mi South 16.1 mph - N/A   Clear
7:55 PM 101.8 °F - 50.7 °F 18% 29.68 in 10.0 mi South 15.0 mph - N/A   Clear
8:15 PM 100.2 °F - 52.9 °F 20% 29.68 in 10.0 mi South 15.0 mph - N/A   Clear
8:35 PM 97.7 °F 95.9 °F 55.0 °F 24% 29.68 in 10.0 mi South 12.7 mph - N/A   Clear
8:55 PM - - - N/A% 29.69 in 10.0 mi South 15.0 mph 20.7 mph N/A   Unknown
9:15 PM 94.8 °F 93.4 °F 57.2 °F 28% 29.69 in 10.0 mi South 17.3 mph 21.9 mph N/A   Clear
9:35 PM 93.9 °F 93.2 °F 58.8 °F 31% 29.69 in 10.0 mi South 16.1 mph 23.0 mph N/A   Clear
9:55 PM 92.8 °F 92.8 °F 60.3 °F 34% 29.70 in 10.0 mi South 17.3 mph - N/A   Clear
10:15 PM 91.8 °F 91.9 °F 61.5 °F 36% 29.71 in 10.0 mi South 17.3 mph 20.7 mph N/A   Clear
10:35 PM 90.7 °F 91.0 °F 62.1 °F 38% 29.71 in 10.0 mi South 18.4 mph 25.3 mph N/A   Clear
10:55 PM 89.8 °F 90.4 °F 62.6 °F 40% 29.72 in 10.0 mi South 18.4 mph 24.2 mph N/A   Clear
11:15 PM 89.1 °F 90.0 °F 63.0 °F 42% 29.72 in 10.0 mi South 18.4 mph 25.3 mph N/A   Clear
11:35 PM 88.3 °F 89.2 °F 63.3 °F 43% 29.72 in 10.0 mi South 19.6 mph 23.0 mph N/A   Clear